GW7731 Weather Reports


Display with metric or nautical units.
time (UTC)temp
F
wind
direction
speed
MPH
gust
MPH
rain 1hr
in
rain 24hr
in
rain mn
in
humidity
%
barometer
mb
20260906090616 73 0.0 0.0 0.00 0.31 0.00 97 1016.2
20260906085416 73 0.0 0.0 0.00 0.31 0.00 97 1016.0
20260906084216 73 0.0 0.0 0.00 0.31 0.00 97 1015.9
20260906083016 73 0.0 0.0 0.00 0.31 0.00 97 1015.7
20260906081816 73 0.0 0.0 0.00 0.31 0.00 97 1015.8
20260906080616 73 0.0 0.0 0.00 0.31 0.00 97 1015.9
20260906075416 73 0.0 0.0 0.00 0.31 0.00 97 1015.7
20260906074216 73 0.0 0.0 0.00 0.31 0.00 97 1015.7
20260906073016 73 0.0 0.0 0.00 0.31 0.00 97 1015.8
20260906071836 73 0.0 0.0 0.00 0.31 0.00 97 1015.9
20260906070616 73 0.0 0.0 0.00 0.31 0.00 97 1015.9
20260906065416 73 0.0 0.0 0.00 0.31 0.00 97 1015.9
20260906064216 74 0.0 0.0 0.00 0.31 0.00 97 1016.0
20260906063036 74 0.0 0.0 0.00 0.31 0.00 97 1016.1
20260906061816 74 0.0 0.0 0.00 0.31 0.00 96 1016.2
20260906060616 74 0.0 0.0 0.00 0.31 0.00 97 1016.3
20260906055416 74 0.0 0.0 0.00 0.31 0.00 96 1016.3
20260906054216 74 0.0 0.0 0.00 0.31 0.00 96 1016.5
20260906053036 74 0.0 0.0 0.00 0.31 0.00 96 1016.5
20260906051815 74 0.0 0.0 0.00 0.31 0.00 96 1016.7
20260906050615 74 0.0 0.0 0.00 0.31 0.00 96 1016.7
20260906045416 74 0.0 0.0 0.00 0.31 0.00 96 1016.7
20260906044215 74 0.0 0.0 0.01 0.31 0.00 96 1016.8
20260906043015 74 0.0 0.0 0.12 0.31 0.00 96 1016.6
20260906041815 74 0.0 0.0 0.31 0.31 0.00 95 1016.5
20260906040635 75 0.0 0.0 0.31 0.31 0.00 95 1016.5
20260906035416 75 48 0.0 2.0 0.31 0.31 0.31 94 1016.5
20260906034236 76 156 1.0 3.0 0.30 0.30 0.30 91 1016.9
20260906033016 78 181 2.0 6.0 0.19 0.19 0.19 87 1017.1
20260906031815 78 0.0 0.0 0.00 0.00 0.00 84 1017.3
20260906030616 78 0.0 0.0 0.00 0.00 0.00 84 1017.2
20260906025416 78 0.0 0.0 0.00 0.00 0.00 84 1017.1
20260906024215 78 0.0 0.0 0.00 0.00 0.00 83 1017.0
20260906023016 79 0.0 0.0 0.00 0.00 0.00 82 1016.8
20260906021816 79 0.0 0.0 0.00 0.00 0.00 81 1016.9
20260906020616 79 0.0 0.0 0.00 0.00 0.00 81 1016.8
20260906015416 79 0.0 0.0 0.00 0.00 0.00 80 1016.7
20260906014256 80 0.0 0.0 0.00 0.00 0.00 80 1016.7
20260906013015 80 0.0 0.0 0.00 0.00 0.00 79 1016.5
20260906011816 81 0.0 0.0 0.00 0.00 0.00 78 1016.4
20260906010615 81 0.0 0.0 0.00 0.00 0.00 77 1016.3
20260906005456 82 0.0 0.0 0.00 0.00 0.00 75 1015.9
20260906004216 82 0.0 0.0 0.00 0.00 0.00 75 1015.9
20260906003015 82 0.0 0.0 0.00 0.00 0.00 75 1015.7
20260906001815 82 0.0 0.0 0.00 0.00 0.00 74 1015.7
20260906000615 83 0.0 0.0 0.00 0.00 0.00 69 1015.8
20260905235415 84 347 0.0 1.0 0.00 0.00 0.00 67 1015.8
20260905234215 84 0.0 1.0 0.00 0.00 0.00 65 1015.7
20260905233035 84 266 2.0 4.0 0.00 0.00 0.00 67 1016.0
20260905231815 86 289 1.0 2.0 0.00 0.00 0.00 63 1015.6
20260905230616 86 64 1.0 3.0 0.00 0.00 0.00 60 1015.7
20260905225415 87 300 0.0 3.0 0.00 0.00 0.00 61 1015.4
20260905224215 87 96 2.0 7.0 0.00 0.00 0.00 59 1015.4
20260905223015 88 82 3.0 9.0 0.00 0.00 0.00 58 1015.3
20260905221815 90 44 5.0 13.0 0.00 0.00 0.00 56 1015.2
20260905220616 94 38 5.0 10.0 0.00 0.00 0.00 52 1015.1
20260905215415 98 21 1.0 4.0 0.00 0.00 0.00 45 1014.5
20260905214215 101 309 1.0 2.0 0.00 0.00 0.00 41 1014.3
20260905213035 101 24 0.0 3.0 0.00 0.00 0.00 42 1014.5
20260905211815 100 225 0.0 2.0 0.00 0.00 0.00 42 1014.7
20260905210636 100 54 0.0 3.0 0.00 0.00 0.00 42 1015.0
20260905205415 100 81 1.0 3.0 0.00 0.00 0.00 42 1015.1
20260905204215 101 136 0.0 2.0 0.00 0.00 0.00 41 1014.9
20260905203015 101 127 0.0 2.0 0.00 0.00 0.00 41 1014.8
20260905201815 101 45 0.0 3.0 0.00 0.00 0.00 41 1015.0
20260905200615 101 223 0.0 2.0 0.00 0.00 0.00 43 1015.1
20260905195415 101 264 1.0 3.0 0.00 0.00 0.00 42 1015.3
20260905194215 100 333 0.0 4.0 0.00 0.00 0.00 42 1015.4
20260905193015 100 221 1.0 2.0 0.00 0.00 0.00 44 1015.6
20260905191815 98 16 2.0 5.0 0.00 0.00 0.00 47 1015.7
20260905190615 99 338 1.0 6.0 0.00 0.00 0.00 47 1015.8
20260905185415 99 159 0.0 3.0 0.00 0.00 0.00 48 1016.1
20260905184215 98 216 0.0 2.0 0.00 0.00 0.00 50 1016.3
20260905183015 97 33 2.0 5.0 0.00 0.00 0.00 51 1016.4
20260905181815 97 8 1.0 4.0 0.00 0.00 0.00 51 1016.5
20260905180615 96 82 1.0 5.0 0.00 0.00 0.00 51 1016.7
20260905175415 97 38 2.0 5.0 0.00 0.00 0.00 52 1016.8
20260905174215 96 229 1.0 4.0 0.00 0.00 0.00 52 1017.0
20260905173015 94 218 2.0 3.0 0.00 0.00 0.00 54 1017.1
20260905171815 94 46 3.0 6.0 0.00 0.00 0.00 54 1017.2
20260905170614 93 46 3.0 5.0 0.00 0.00 0.00 56 1017.3
20260905165416 94 40 4.0 9.0 0.00 0.00 0.00 55 1017.6
20260905164217 94 70 2.0 3.0 0.00 0.00 0.00 55 1017.8
20260905163017 94 222 2.0 4.0 0.00 0.00 0.00 56 1018.1
20260905161837 92 116 2.0 3.0 0.00 0.00 0.00 59 1018.4
20260905160616 93 46 2.0 4.0 0.00 0.00 0.00 59 1018.5
20260905155417 93 42 1.0 4.0 0.00 0.00 0.00 62 1018.7
20260905154216 91 108 0.0 3.0 0.00 0.00 0.00 64 1018.8
20260905153016 90 205 0.0 3.0 0.00 0.00 0.00 65 1018.8
20260905151816 89 211 1.0 3.0 0.00 0.00 0.00 68 1018.8
20260905150616 88 106 1.0 2.0 0.00 0.00 0.00 71 1019.0
20260905145437 87 57 1.0 2.0 0.00 0.00 0.00 74 1019.2
20260905144217 86 59 1.0 3.0 0.00 0.00 0.00 75 1019.4
20260905143016 86 67 1.0 3.0 0.00 0.00 0.00 77 1019.4
20260905141816 85 163 1.0 3.0 0.00 0.00 0.00 78 1019.5
20260905140636 85 0.0 0.0 0.00 0.00 0.00 79 1019.6
20260905135416 82 0.0 0.0 0.00 0.00 0.00 83 1019.5
20260905134216 81 0.0 0.0 0.00 0.00 0.00 85 1019.6
20260905133016 80 0.0 0.0 0.00 0.00 0.00 87 1019.5
20260905131817 79 0.0 0.0 0.00 0.00 0.00 88 1019.8
20260905130616 78 0.0 0.0 0.00 0.00 0.00 91 1020.0
20260905125436 76 0.0 0.0 0.00 0.00 0.00 93 1019.9
20260905124236 75 255 1.0 3.0 0.00 0.00 0.00 96 1019.8
20260905123016 74 217 0.0 2.0 0.00 0.00 0.00 97 1019.6
20260905121816 74 0.0 0.0 0.00 0.00 0.00 98 1019.6
20260905120616 73 0.0 0.0 0.00 0.00 0.00 97 1019.4
20260905115416 73 0.0 0.0 0.00 0.00 0.00 97 1019.3
20260905114216 73 0.0 0.0 0.00 0.00 0.00 97 1019.3
20260905113016 73 0.0 0.0 0.00 0.00 0.00 97 1019.3
20260905111816 73 0.0 0.0 0.00 0.00 0.00 97 1019.2
20260905110616 73 0.0 0.0 0.00 0.00 0.00 97 1019.1
20260905105416 73 0.0 0.0 0.00 0.00 0.00 96 1018.9
20260905104216 73 0.0 0.0 0.00 0.00 0.00 96 1018.7
20260905103016 73 0.0 0.0 0.00 0.00 0.00 97 1018.6
20260905101816 73 0.0 0.0 0.00 0.00 0.00 96 1018.7
20260905100616 73 0.0 0.0 0.00 0.00 0.00 97 1018.5
20260905095416 73 0.0 0.0 0.00 0.00 0.00 96 1018.5
20260905094216 73 0.0 0.0 0.00 0.00 0.00 96 1018.6
20260905093016 73 0.0 0.0 0.00 0.00 0.00 96 1018.6
20260905091816 73 0.0 0.0 0.00 0.00 0.00 96 1018.6